Location: Caracas
(10.5000°N, 66.9170°W)
Time: 22:40:39
(UTC-04:00)

Envisat - Visible Passes

Search period start: 20 January 2018 00:00
Search period end: 30 January 2018 00:00
Orbit: 764 x 766 km, 98.2° (Epoch: 20 January)

Date Brightness Start Highest point End Pass type
(mag) Time Alt. Az. Time Alt. Az. Time Alt. Az.
20 Jan 5.1 19:33:48 10° SE 19:33:50 10° SE 19:33:50 10° SE visible
20 Jan 5.5 21:12:29 10° SSW 21:14:02 17° SW 21:14:02 17° SW visible
21 Jan 4.5 20:34:42 10° S 20:36:57 26° S 20:36:57 26° S visible
22 Jan 4.6 19:58:18 10° SSE 19:59:51 19° SE 19:59:51 19° SE visible
23 Jan 5.1 21:00:52 10° SSW 21:02:57 21° SW 21:02:57 21° SW visible
24 Jan 4.3 20:23:32 10° S 20:25:51 28° S 20:25:51 28° S visible
25 Jan 4.7 19:47:31 10° SE 19:48:45 16° SE 19:48:45 16° SE visible
25 Jan 5.8 21:28:06 10° SW 21:28:57 12° SW 21:28:57 12° SW visible
26 Jan 4.7 20:49:24 10° S 20:51:51 26° SSW 20:51:51 26° SSW visible
27 Jan 4.3 20:12:29 10° SSE 20:14:45 27° SSE 20:14:45 27° SSE visible
28 Jan 4.9 19:36:53 10° SE 19:37:38 13° ESE 19:37:38 13° ESE visible
28 Jan 5.5 21:16:04 10° SSW 21:17:50 17° SW 21:17:50 17° SW visible
29 Jan 4.4 20:38:05 10° S 20:40:44 30° SSW 20:40:44 30° SSW visible
